TimeCST,TemperatureF,Dew PointF,Humidity,Sea Level PressureIn,VisibilityMPH,Wind Direction,Wind SpeedMPH,Gust SpeedMPH,PrecipitationIn,Events,Conditions,WindDirDegrees,DateUTC
12:52 AM,28.9,23.0,78,30.30,8.0,ESE,11.5,-,N/A,,Clear,110,2013-03-09 06:52:00
1:52 AM,30.0,24.1,79,30.28,8.0,ESE,8.1,-,N/A,,Clear,120,2013-03-09 07:52:00
2:52 AM,30.0,24.1,79,30.25,8.0,SE,8.1,-,N/A,,Clear,130,2013-03-09 08:52:00
3:52 AM,30.9,25.0,79,30.24,8.0,SE,9.2,-,N/A,,Overcast,130,2013-03-09 09:52:00
4:52 AM,32.0,26.1,79,30.24,8.0,SE,9.2,-,N/A,,Overcast,130,2013-03-09 10:52:00
5:52 AM,32.0,27.0,82,30.25,8.0,South,6.9,-,0.00,,Overcast,170,2013-03-09 11:52:00
6:52 AM,33.1,28.9,85,30.25,3.0,SE,10.4,-,0.04,Rain,Light Rain,140,2013-03-09 12:52:00
7:52 AM,33.1,30.0,89,30.21,5.0,SE,13.8,-,0.02,,Overcast,130,2013-03-09 13:52:00
8:52 AM,34.0,30.0,85,30.20,7.0,SE,13.8,-,N/A,,Overcast,140,2013-03-09 14:52:00
9:52 AM,35.1,28.9,78,30.15,8.0,SSE,13.8,-,N/A,,Overcast,150,2013-03-09 15:52:00
10:52 AM,36.0,30.0,79,30.12,9.0,SE,15.0,-,0.00,,Overcast,140,2013-03-09 16:52:00
11:52 AM,37.9,30.0,73,30.09,10.0,SE,16.1,-,N/A,,Mostly Cloudy,140,2013-03-09 17:52:00
12:52 PM,39.0,30.0,70,30.06,10.0,SSE,16.1,-,N/A,,Mostly Cloudy,150,2013-03-09 18:52:00
1:52 PM,39.0,30.9,73,30.02,10.0,SSE,13.8,-,N/A,,Overcast,160,2013-03-09 19:52:00
2:52 PM,39.9,30.9,70,29.99,10.0,SSE,11.5,-,N/A,,Overcast,150,2013-03-09 20:52:00
3:52 PM,39.0,30.9,73,29.97,10.0,SE,11.5,-,N/A,,Overcast,140,2013-03-09 21:52:00
4:52 PM,39.0,32.0,76,29.93,10.0,SE,15.0,-,0.00,,Mostly Cloudy,130,2013-03-09 22:52:00
5:52 PM,37.9,32.0,79,29.92,9.0,SE,12.7,-,N/A,,Mostly Cloudy,140,2013-03-09 23:52:00
6:52 PM,37.9,32.0,79,29.90,10.0,SE,11.5,-,N/A,,Partly Cloudy,130,2013-03-10 00:52:00
7:52 PM,39.0,33.1,79,29.88,10.0,SE,13.8,-,N/A,,Mostly Cloudy,140,2013-03-10 01:52:00
8:52 PM,39.0,33.1,79,29.90,10.0,Calm,Calm,-,N/A,,Overcast,0,2013-03-10 02:52:00
9:52 PM,39.0,33.1,79,29.89,10.0,Calm,Calm,-,N/A,,Overcast,0,2013-03-10 03:52:00
10:52 PM,37.0,33.1,86,29.87,10.0,Calm,Calm,-,N/A,,Overcast,0,2013-03-10 04:52:00
11:52 PM,39.0,33.1,79,29.85,10.0,SE,6.9,-,N/A,,Overcast,130,2013-03-10 05:52:00